[[{"header":{"parameterUnit":"m.s-1","parameterCategory":1,"la1":30.2991,"la2":30.254,"lo1":-89.0895,"lo2":-89.0444,"dy":0.0017,"dx":0.0017,"nx":28,"ny":28,"refTime":"2025-02-02T09:00:00:Z","depth":0,"parameterNumber":2,"parameterNumberName":"U-component_of_WINDS"},"data":[0,0,0,0,0,0,0,0,0,0,0,0,0,0,0,0,0,0,0,0,0,0,0,0,0,0,0,0,0,0,0,0,0,0,0,0,0,0,0,0,0,0,0,0,0,0,0,0,0,0,0,0,0,0,0,0,0,0,-0.617,-0.617,0,-0.6196,-0.6197,-0.6197,-0.6198,-0.6198,-0.6197,-0.6197,-0.6227,-0.6228,-0.6229,0,0,0,0,0,0,0,0,0,0,0,0,0,-0.6123,-0.6124,-0.617,-0.617,-0.6171,-0.6196,-0.6197,-0.6197,-0.6198,-0.6198,-0.6197,-0.6197,-0.6226,-0.6228,-0.6229,0,0,0,0,0,0,0,0,0,0,0,0,0,-0.6146,-0.6124,-0.617,-0.6174,-0.6175,-0.6196,-0.6197,-0.6197,-0.6198,-0.6198,-0.6197,-0.6197,-0.6226,-0.6228,-0.6229,-0.6249,0,0,-0.6234,-0.6235,0,0,0,0,0,0,0,0,-0.6144,-0.6147,-0.6173,-0.6174,-0.6175,-0.6193,-0.6191,-0.6215,-0.6198,-0.6189,-0.6197,-0.6196,-0.6216,-0.6219,-0.6225,-0.625,-0.6252,-0.6234,-0.6235,-0.6236,-0.6236,0,0,0,0,0,0,0,-0.6143,-0.6146,-0.6181,-0.6174,-0.6175,-0.6175,-0.6178,-0.6195,-0.6205,-0.619,-0.619,-0.6193,-0.6217,-0.6223,-0.6225,-0.6252,-0.6234,-0.6236,-0.6237,-0.6237,-0.6295,-0.6295,0,0,0,0,0,0,-0.614,-0.6145,-0.618,-0.6181,-0.6158,-0.6177,-0.618,-0.6188,-0.6205,-0.6207,-0.6194,-0.6193,-0.6221,-0.6223,-0.6226,-0.625,-0.6236,-0.6238,-0.6238,-0.6294,-0.6295,-0.6295,0,0,0,0,0,0,-0.6139,-0.6143,-0.6179,-0.6163,-0.6168,-0.6178,-0.6187,-0.6189,-0.6195,-0.6208,-0.621,-0.6198,-0.622,-0.6224,-0.6243,-0.6251,-0.6238,-0.624,-0.6293,-0.6294,-0.6295,-0.6298,0,0,0,0,0,0,-0.6138,-0.6143,-0.615,-0.6163,-0.6169,-0.6194,-0.6188,-0.619,-0.6198,-0.6197,-0.6213,-0.6215,-0.622,-0.6241,-0.6245,-0.6253,-0.6241,-0.6293,-0.6294,-0.6295,-0.6297,-0.6299,-0.63,0,0,0,0,0,-0.6136,-0.6151,-0.615,-0.6155,-0.6178,-0.6195,-0.6198,-0.6203,-0.6198,-0.6206,-0.6214,-0.6214,-0.625,-0.6242,-0.6247,-0.6256,-0.6292,-0.6294,-0.6295,-0.6297,-0.6299,-0.63,0,0,0,0,0,0,-0.6139,-0.6153,-0.6152,-0.6172,-0.6182,-0.6195,-0.6204,-0.6205,-0.6217,-0.6217,-0.6223,-0.6227,-0.6245,-0.6253,-0.6245,-0.6276,-0.6271,-0.6273,-0.627,-0.6272,-0.6274,-0.6272,-0.6242,0,0,0,0,0,-0.6142,-0.6154,-0.6165,-0.6181,-0.6186,-0.6194,-0.6202,-0.6205,-0.6216,-0.6221,-0.623,-0.6242,-0.6255,-0.6264,-0.6278,-0.6298,-0.6302,-0.6307,-0.6308,-0.631,-0.6311,-0.6322,-0.6325,-0.6299,-0.6299,-0.6299,0,0,-0.6148,-0.6157,-0.6164,-0.6182,-0.619,-0.6203,-0.6198,-0.6212,-0.6221,-0.6223,-0.6241,-0.6248,-0.6262,-0.6281,-0.629,-0.6288,-0.6319,-0.6311,-0.6312,-0.6313,-0.6324,-0.6326,-0.6328,-0.63,-0.63,-0.63,0,0,-0.6166,-0.6174,-0.6187,-0.6195,-0.6207,-0.6213,-0.6216,-0.6229,-0.6233,-0.6251,-0.6252,-0.6264,-0.6288,-0.6297,-0.6305,-0.6325,-0.6325,-0.6329,-0.6337,-0.6347,-0.6349,-0.6351,-0.6357,-0.636,-0.6331,-0.6331,-0.6331,0,-0.6172,-0.619,-0.6195,-0.6208,-0.6215,-0.6216,-0.623,-0.6238,-0.6255,-0.626,-0.6257,-0.6286,-0.6295,-0.6316,-0.6321,-0.6328,-0.6332,-0.6327,-0.6348,-0.635,-0.6352,-0.6358,-0.6361,-0.6331,-0.6331,-0.6331,-0.6331,0,-0.6198,-0.621,-0.622,-0.6234,-0.6243,-0.6257,-0.6263,-0.6272,-0.6274,-0.6279,-0.6297,-0.6308,-0.6323,-0.6329,-0.6331,-0.635,-0.6348,-0.6347,-0.6341,-0.6354,-0.6361,-0.6363,-0.6331,-0.6331,-0.6331,-0.6331,0,0,-0.6218,-0.6234,-0.6237,-0.6243,-0.6256,-0.6266,-0.628,-0.6294,-0.6301,-0.6312,-0.6324,-0.6343,-0.6341,-0.635,-0.6354,-0.6363,-0.6377,-0.636,-0.636,-0.6362,-0.6398,-0.6399,-0.6402,-0.6378,-0.6378,-0.6379,-0.6397,0,-0.6237,-0.626,-0.6264,-0.6285,-0.6296,-0.6297,-0.6309,-0.6318,-0.6324,-0.6335,-0.6342,-0.6355,-0.6352,-0.6357,-0.6366,-0.6373,-0.6384,-0.6372,-0.6389,-0.6389,-0.6385,-0.6405,-0.6406,-0.6423,-0.6399,-0.64,-0.64,0,-0.6262,-0.6272,-0.6294,-0.6304,-0.6309,-0.632,-0.6332,-0.6342,-0.6353,-0.6357,-0.6366,-0.6368,-0.6383,-0.6377,-0.6397,-0.6388,-0.6395,-0.64,-0.6401,-0.6403,-0.6395,-0.6407,-0.6428,-0.6431,-0.6404,-0.6404,-0.6403,0,-0.6274,-0.6294,-0.6309,-0.6314,-0.6327,-0.6334,-0.634,-0.635,-0.6358,-0.6369,-0.6374,-0.6387,-0.6394,-0.6404,-0.641,-0.6405,-0.643,-0.6424,-0.6433,-0.6433,-0.6438,-0.6438,-0.6461,-0.6444,-0.6443,-0.6443,-0.6443,0,-0.6294,-0.6307,-0.6314,-0.6323,-0.6338,-0.6342,-0.6357,-0.6363,-0.6371,-0.6382,-0.6384,-0.6394,-0.6402,-0.6413,-0.6418,-0.6433,-0.6437,-0.644,-0.6441,-0.644,-0.6439,-0.6444,-0.6443,-0.6444,-0.6444,-0.6444,-0.6444,0,-0.6311,-0.6316,-0.6332,-0.6342,-0.6345,-0.6355,-0.6365,-0.6374,-0.6379,-0.6392,-0.6396,-0.6404,-0.6418,-0.6424,-0.6442,-0.6445,-0.6462,-0.6463,-0.6458,-0.6458,-0.6467,-0.6466,-0.6494,-0.6497,-0.6478,-0.6478,-0.6478,0,-0.6323,-0.6333,-0.6344,-0.635,-0.6356,-0.6367,-0.6374,-0.6379,-0.6387,-0.6399,-0.6407,-0.642,-0.6431,-0.6452,-0.646,-0.6473,-0.6474,-0.6483,-0.6476,-0.6474,-0.6473,-0.6473,-0.6473,-0.6484,-0.6484,-0.6484,-0.6484,0,-0.6344,-0.6346,-0.6356,-0.6367,-0.6375,-0.6384,-0.6393,-0.6399,-0.6405,-0.6414,-0.6427,-0.6435,-0.6451,-0.6464,-0.6478,-0.6484,-0.6485,-0.6486,-0.6489,-0.6488,-0.6484,-0.6486,-0.6461,-0.6486,-0.6486,-0.6486,-0.6485,-0.6485,-0.6359,-0.6367,-0.6376,-0.6387,-0.6394,-0.6402,-0.641,-0.6416,-0.6427,-0.644,-0.6442,-0.6456,-0.6466,-0.6483,-0.649,-0.6502,-0.65,-0.6504,-0.6505,-0.6506,-0.6506,-0.6482,-0.6504,-0.6504,-0.6504,-0.6504,-0.6504,0,-0.638,-0.6385,-0.6395,-0.6407,-0.6415,-0.6414,-0.6424,-0.6432,-0.6443,-0.6452,-0.6462,-0.6477,-0.6489,-0.6498,-0.651,-0.6517,-0.6518,-0.6521,-0.652,-0.6521,-0.6507,-0.6503,-0.652,-0.652,-0.652,-0.652,-0.652,-0.652,-0.6392,-0.6405,-0.6408,-0.6425,-0.6431,-0.6443,-0.6448,-0.6456,-0.6463,-0.6479,-0.6489,-0.6494,-0.6502,-0.6516,-0.6527,-0.6529,-0.6534,-0.6536,-0.6538,-0.6524,-0.6523,-0.6521,-0.6517,-0.6537,-0.6537,-0.6552,-0.6552,-0.6552]},{"header":{"parameterUnit":"m.s-1","parameterCategory":1,"la1":30.2991,"la2":30.254,"lo1":-89.0895,"lo2":-89.0444,"dy":0.0017,"dx":0.0017,"nx":28,"ny":28,"refTime":"2025-02-02T09:00:00:Z","depth":0,"parameterNumber":3,"parameterNumberName":"V-component_of_WINDS"},"data":[0,0,0,0,0,0,0,0,0,0,0,0,0,0,0,0,0,0,0,0,0,0,0,0,0,0,0,0,0,0,0,0,0,0,0,0,0,0,0,0,0,0,0,0,0,0,0,0,0,0,0,0,0,0,0,0,0,0,-1.1756,-1.1758,0,-1.1867,-1.1869,-1.187,-1.1901,-1.19,-1.1899,-1.1899,-1.2014,-1.2018,-1.2021,0,0,0,0,0,0,0,0,0,0,0,0,0,-1.1573,-1.1577,-1.1756,-1.1758,-1.1759,-1.1867,-1.1869,-1.187,-1.1901,-1.19,-1.1899,-1.1898,-1.2013,-1.2017,-1.2022,0,0,0,0,0,0,0,0,0,0,0,0,0,-1.1665,-1.1578,-1.1756,-1.1787,-1.1791,-1.1867,-1.1869,-1.1871,-1.1901,-1.19,-1.1899,-1.1898,-1.2011,-1.2017,-1.2022,-1.2075,0,0,-1.2039,-1.2041,0,0,0,0,0,0,0,0,-1.166,-1.1672,-1.1781,-1.1785,-1.179,-1.1869,-1.1846,-1.1939,-1.1901,-1.1859,-1.1899,-1.1898,-1.1967,-1.1976,-1.1999,-1.2081,-1.2086,-1.2039,-1.2043,-1.2045,-1.2047,0,0,0,0,0,0,0,-1.1654,-1.1668,-1.18,-1.1783,-1.1788,-1.1797,-1.1809,-1.1864,-1.1917,-1.1863,-1.1865,-1.1878,-1.1969,-1.1993,-1.2002,-1.2087,-1.2039,-1.2044,-1.2048,-1.205,-1.2219,-1.222,0,0,0,0,0,0,-1.1642,-1.1662,-1.1797,-1.1804,-1.1721,-1.1801,-1.1814,-1.1845,-1.1917,-1.1927,-1.1879,-1.1879,-1.1984,-1.1995,-1.2006,-1.2073,-1.2045,-1.205,-1.2053,-1.2218,-1.2219,-1.2221,0,0,0,0,0,0,-1.1638,-1.1653,-1.1792,-1.1734,-1.1752,-1.1805,-1.1839,-1.1847,-1.1872,-1.1928,-1.1938,-1.1894,-1.1984,-1.1998,-1.2058,-1.2078,-1.2053,-1.2058,-1.2217,-1.2218,-1.222,-1.2208,0,0,0,0,0,0,-1.1632,-1.1652,-1.1672,-1.1734,-1.1755,-1.1842,-1.184,-1.185,-1.1881,-1.1883,-1.1945,-1.1955,-1.1984,-1.2049,-1.2063,-1.2085,-1.2062,-1.2215,-1.2217,-1.2219,-1.2207,-1.2209,-1.2211,0,0,0,0,0,-1.1626,-1.1664,-1.1673,-1.1689,-1.1781,-1.1843,-1.1855,-1.1888,-1.1882,-1.1904,-1.194,-1.1953,-1.2073,-1.2055,-1.2071,-1.2095,-1.2214,-1.2217,-1.2219,-1.2206,-1.2209,-1.2211,0,0,0,0,0,0,-1.1604,-1.1673,-1.1683,-1.1743,-1.1787,-1.1848,-1.1875,-1.189,-1.1936,-1.1936,-1.1975,-1.1989,-1.2046,-1.2076,-1.2055,-1.215,-1.2144,-1.215,-1.2128,-1.2132,-1.2134,-1.2125,-1.2067,0,0,0,0,0,-1.1606,-1.165,-1.1708,-1.1755,-1.1777,-1.1822,-1.185,-1.1872,-1.1919,-1.1938,-1.1979,-1.2024,-1.2073,-1.2104,-1.2151,-1.2211,-1.2226,-1.2236,-1.2238,-1.2239,-1.2244,-1.2279,-1.2284,-1.223,-1.223,-1.223,0,0,-1.1612,-1.1654,-1.168,-1.1752,-1.1789,-1.1834,-1.1838,-1.1885,-1.1919,-1.1945,-1.2004,-1.2036,-1.209,-1.215,-1.2178,-1.2177,-1.2262,-1.2243,-1.2243,-1.2248,-1.2282,-1.2287,-1.2292,-1.2231,-1.2231,-1.2231,0,0,-1.1644,-1.168,-1.1724,-1.176,-1.1815,-1.1845,-1.1856,-1.1915,-1.1937,-1.1996,-1.2017,-1.2058,-1.214,-1.2178,-1.2208,-1.2255,-1.2269,-1.2269,-1.2281,-1.2314,-1.2319,-1.2323,-1.234,-1.2346,-1.2274,-1.2274,-1.2274,0,-1.1644,-1.1712,-1.1745,-1.1791,-1.1823,-1.1848,-1.1893,-1.1927,-1.1995,-1.2016,-1.2013,-1.2117,-1.2155,-1.2225,-1.2237,-1.226,-1.2274,-1.2263,-1.2315,-1.232,-1.2324,-1.2341,-1.2347,-1.2274,-1.2274,-1.2274,-1.2274,0,-1.1709,-1.1756,-1.1785,-1.1849,-1.1884,-1.1929,-1.197,-1.2002,-1.202,-1.2051,-1.2111,-1.2158,-1.2215,-1.2233,-1.2252,-1.2306,-1.2303,-1.2307,-1.2302,-1.2328,-1.2345,-1.2352,-1.2273,-1.2273,-1.2274,-1.2274,0,0,-1.1731,-1.1813,-1.1823,-1.1853,-1.1915,-1.1953,-1.2,-1.2056,-1.2082,-1.2128,-1.2169,-1.2238,-1.2242,-1.2276,-1.2299,-1.2328,-1.2364,-1.2329,-1.2331,-1.2334,-1.2427,-1.2424,-1.2431,-1.2373,-1.2374,-1.2375,-1.2423,0,-1.1772,-1.1856,-1.1888,-1.1957,-1.2001,-1.2026,-1.2067,-1.211,-1.214,-1.2182,-1.2216,-1.2264,-1.2265,-1.2286,-1.2316,-1.2353,-1.2383,-1.235,-1.2412,-1.2414,-1.2398,-1.244,-1.2437,-1.2479,-1.2429,-1.243,-1.2431,0,-1.1831,-1.1877,-1.195,-1.2008,-1.2028,-1.2064,-1.2118,-1.2158,-1.2208,-1.2228,-1.2265,-1.2287,-1.2338,-1.2328,-1.24,-1.2376,-1.2404,-1.2426,-1.2428,-1.2436,-1.2425,-1.2449,-1.2494,-1.25,-1.2442,-1.2441,-1.244,0,-1.1841,-1.1921,-1.1976,-1.2,-1.2068,-1.2093,-1.2123,-1.2172,-1.2204,-1.2251,-1.2272,-1.2325,-1.2354,-1.2395,-1.243,-1.242,-1.2498,-1.2492,-1.2517,-1.2516,-1.2533,-1.2531,-1.2583,-1.2549,-1.2549,-1.2549,-1.2549,0,-1.1883,-1.1928,-1.1981,-1.2015,-1.2065,-1.2101,-1.215,-1.2182,-1.2225,-1.2266,-1.229,-1.2328,-1.2372,-1.2416,-1.2444,-1.2499,-1.2512,-1.253,-1.2537,-1.2528,-1.2526,-1.2547,-1.2545,-1.255,-1.255,-1.255,-1.2549,0,-1.1903,-1.194,-1.2002,-1.2061,-1.2077,-1.2112,-1.2163,-1.2197,-1.2228,-1.2279,-1.2293,-1.2342,-1.2395,-1.2434,-1.2502,-1.2521,-1.258,-1.2587,-1.2563,-1.2567,-1.259,-1.2588,-1.2658,-1.2669,-1.2626,-1.2627,-1.2627,0,-1.1928,-1.1963,-1.2025,-1.2054,-1.2084,-1.213,-1.2162,-1.2199,-1.2232,-1.2291,-1.2318,-1.2373,-1.2418,-1.2502,-1.2544,-1.2596,-1.2605,-1.2626,-1.2613,-1.2603,-1.2606,-1.2604,-1.2608,-1.2628,-1.2628,-1.2628,-1.2628,0,-1.1969,-1.1986,-1.2031,-1.2083,-1.2121,-1.2163,-1.2207,-1.2229,-1.2274,-1.231,-1.2364,-1.2399,-1.2469,-1.2523,-1.258,-1.2611,-1.2628,-1.2632,-1.2641,-1.2633,-1.2618,-1.2627,-1.2569,-1.263,-1.263,-1.263,-1.263,-1.263,-1.1993,-1.2025,-1.2074,-1.2124,-1.216,-1.22,-1.2235,-1.227,-1.2316,-1.2375,-1.2394,-1.245,-1.25,-1.2578,-1.261,-1.2655,-1.2655,-1.2667,-1.267,-1.2673,-1.2673,-1.261,-1.2665,-1.2665,-1.2665,-1.2665,-1.2665,0,-1.2035,-1.2068,-1.2113,-1.2173,-1.2213,-1.2224,-1.2272,-1.2305,-1.2354,-1.2398,-1.2442,-1.2505,-1.2558,-1.2603,-1.2658,-1.2685,-1.2694,-1.2699,-1.2697,-1.2705,-1.267,-1.2657,-1.269,-1.269,-1.269,-1.269,-1.269,-1.269,-1.2062,-1.2117,-1.214,-1.2213,-1.2246,-1.2301,-1.2328,-1.2365,-1.2401,-1.2469,-1.2513,-1.2542,-1.2588,-1.2646,-1.2695,-1.2707,-1.2727,-1.2729,-1.2743,-1.271,-1.2707,-1.2704,-1.2692,-1.2733,-1.2733,-1.2775,-1.2775,-1.2776]}]]